Location: ASU Dark Sky Observatory
(36.2504°N, 81.4125°W)
Time: 15:20:49
(UTC-05:00)

Daily predictions for brighter satellites

Satellite Brightness Start Highest point End
(mag) Time Altitude Azimuth Time Altitude Azimuth Time Altitude Azimuth
Haruka 3.8 17:57:08 10° WSW 18:00:30 43° SSE 18:08:04 10° E
CZ-4 R/B 4.5 18:00:48 10° SSE 18:04:53 60° ENE 18:08:58 10° N
CORIOLIS 4.3 18:09:19 10° SSE 18:14:39 83° WSW 18:20:02 10° NNW
Cosmos 1980 4.2 18:09:37 10° SSW 18:15:13 63° WNW 18:20:52 10° NNE
Abrixas 4.2 18:13:52 10° W 18:16:20 24° NNW 18:18:49 10° NNE
Cosmos 1356 Rocket 4.4 18:14:11 10° SSE 18:17:29 25° E 18:20:49 10° NE
Cosmos 1634 Rocket 4.1 18:12:23 10° N 18:18:35 85° W 18:24:44 10° S
IDEFIX/ARIANE 42P 3.5 18:14:29 10° S 18:19:33 54° W 18:24:41 10° NNW
Meteor 1-11 4.2 18:14:47 10° S 18:20:25 75° E 18:26:11 10° NNE
BREEZE-M DEB (TANK) 4.2 18:17:03 10° WNW 18:21:11 52° SW 18:28:07 10° SSE
Lacrosse 5 rocket 1.2 18:21:59 10° NNW 18:25:45 60° NE 18:29:43 10° SE
Aureole 2 Rocket 3.1 18:22:13 10° SSW 18:25:52 66° WNW 18:29:52 10° NNE
H-2A ROCKET BODY 4.4 17:42:58 10° WSW 18:25:58 58° S 18:32:50 10° ESE
FREGAT/IRIS 4.4 18:24:37 10° ESE 18:26:22 14° ENE 18:28:06 10° NE
MSX 4.2 18:22:44 10° S 18:28:25 72° WSW 18:34:10 10° NNW
Coronas F rocket 3.4 18:29:01 10° ESE 18:29:10 11° ESE 18:29:10 11° ESE
BREEZE-M DEB (TANK) 2.6 18:28:29 10° WSW 18:31:01 44° NW 18:33:02 13° NE
Cosmos 1626 2.6 18:29:21 10° SSE 18:32:50 39° E 18:36:22 10° NNE
Cosmos 372 Rocket 3.9 18:28:30 10° NNW 18:33:37 90° WSW 18:38:43 10° SSE
Cosmos 2219 Rocket 4.1 18:29:21 10° WSW 18:34:09 28° WNW 18:38:57 10° N
YAOGAN 1 4.0 18:31:21 10° S 18:35:27 42° W 18:39:35 10° NNW
OTV 4 2.6 18:34:01 10° W 18:36:29 24° SSW 18:38:57 10° SSE
Cosmos 2333 Rocket 3.8 18:31:46 10° SW 18:36:51 34° WNW 18:41:59 10° N
Timation 1 Rocket 4.4 18:31:34 10° NNW 18:37:33 60° ENE 18:43:27 10° SE
Cosmos 304 Rocket 3.8 18:32:52 10° SSW 18:37:40 87° WNW 18:42:31 10° NNE
Cosmos 1707 Rocket 3.9 18:34:01 10° N 18:38:07 41° E 18:42:13 10° SSE
COSMO-SKYMED 1 2.7 18:34:47 10° N 18:39:08 80° WNW 18:43:27 10° SSW
BREEZE M DEB (TANK) 2.5 18:38:38 10° NNW 18:40:37 22° NNE 18:40:58 21° NE
USA 215 3.9 18:37:35 12° E 18:42:59 36° NNE 18:48:49 10° NNW
Cosmos 2151 4.4 18:40:10 10° SSW 18:44:07 39° W 18:48:05 10° N
CZ-4 R/B 4.4 18:42:33 10° SW 18:45:23 19° W 18:48:14 10° NW
Cosmos 1666 Rocket 3.6 18:41:41 10° S 18:45:54 54° E 18:50:11 10° NNE
Cosmos 2278 Rocket 3.0 18:43:54 10° NNW 18:49:26 55° WSW 18:54:55 10° S
Resurs 01 Rocket 2.8 18:49:20 21° ENE 18:49:47 21° ENE 18:53:09 10° NNE
Cosmos 1726 4.1 18:46:58 10° NNW 18:50:21 32° W 18:53:44 10° SSW
Cosmos 1703 3.3 18:48:31 10° S 18:52:24 78° W 18:56:19 10° N
Cosmos 1455 2.5 18:48:51 10° N 18:52:28 41° E 18:56:06 10° SSE
SJ-6B 3.2 18:48:44 10° SE 18:52:35 42° ENE 18:56:30 10° N
Tiangong 1 2.3 19:00:19 10° SSW 19:02:52 26° SE 19:02:54 26° SE
Cosmos 1900 4.2 18:58:41 10° NNW 19:03:40 76° ENE 19:08:41 10° SSE
Cosmos 2237 Rocket 4.3 19:06:33 10° WSW 19:11:00 23° WNW 19:15:28 10° N
Cosmos 2369 Rocket 4.1 19:14:00 10° NNE 19:15:09 13° NNE 19:15:09 13° NNE
SL-16 R/B 3.1 19:12:56 10° SW 19:18:22 47° WNW 19:23:49 10° N
Cosmos 1470 Rocket 3.6 19:14:40 10° SSE 19:18:53 50° E 19:19:23 47° ENE
Lacrosse 4 Rocket 2.5 19:16:11 10° N 19:18:28 27° NNE 19:18:28 27° NNE
Nadezhda 4 Rocket 4.2 19:16:26 10° SSW 19:22:40 75° W 19:28:59 10° N
ALOS 2.3 19:18:24 10° SSE 19:22:56 55° ENE 19:27:30 10° N
Cosmos 2242 Rocket 3.4 19:20:02 10° N 19:24:27 71° E 19:28:53 10° SSE
USA 229 DEB 3.7 19:17:59 10° SSW 19:24:50 88° WNW 19:29:44 21° NNE
USA 229 3.6 19:18:05 10° SSW 19:24:56 89° WNW 19:29:47 22° NNE
Spot 2 Rocket 3.5 19:20:07 10° SSE 19:25:00 52° ENE 19:29:54 10° N
Cosmos 1184 Rocket 3.9 19:22:23 10° SSW 19:25:36 44° W 19:27:44 18° NNW
Cosmos 2026 Rocket 4.2 19:20:47 10° SSE 19:26:39 45° E 19:29:03 31° NE
Cosmos 292 Rocket 3.6 19:29:24 10° SSW 19:34:08 79° ESE 19:35:12 54° NNE
Iridium 4 Rocket 3.1 19:30:20 10° S 19:34:54 81° W 19:38:16 16° N
Cosmos 1869 3.3 19:33:50 10° N 19:37:53 81° W 19:41:55 10° S
NOSS 3-1 (A) 4.5 19:34:04 10° S 19:37:05 25° SE 19:37:05 25° SE
Cosmos 1092 Rocket 4.2 19:37:45 10° SSW 19:44:03 71° W 19:50:25 10° N
FENGYUN 3A 3.6 19:42:46 10° SSE 19:48:07 86° WSW 19:53:32 10° NNW
Cosmos 923 Rocket 4.2 19:43:30 10° SSW 19:48:40 67° WNW 19:50:55 34° N
Meteor 2-20 4.3 19:42:54 10° S 19:48:55 64° E 19:49:31 60° ENE
Cosmos 1680 Rocket 3.5 19:50:18 10° SSW 19:55:30 77° WNW 19:56:19 62° N
Cosmos 1943 3.9 19:51:33 10° S 19:55:14 39° SSE 19:55:14 39° SSE
Lacrosse 5 rocket 4.4 20:03:00 10° W 20:04:35 12° WSW 20:06:11 10° SW
NOSS 3-1 (C) 3.7 20:11:21 10° SSW 20:15:41 55° SSW 20:15:41 55° SSW
USA 215 3.4 20:24:57 63° SSW 20:25:39 67° SW 20:32:11 10° NW
Resurs 01 Rocket 3.5 20:22:08 10° SSW 20:26:52 28° WNW 20:29:59 10° NW
